SAS446 EKCH-ESGG

Flight info

Callsign SAS446
Flight time 0h 33m
Altitude 20000
Route VEDAR L997 RISMA
Aircraft A320/M-SDE3FGHIRWY/LB1

Departure

Time 2026-04-30 21:58
Airport Copenhagen Kastrup Airport (EKCH)

Arrival

Time 2026-04-30 22:31
Airport Göteborg Landvetter Airport (ESGG)
Time Latitude Longitude Altitude Speed Heading
2026-04-30 21:10 55.62891 12.63936 24 ft 0 kts 12°
2026-04-30 21:43 55.62889 12.63935 24 ft 2 kts 11°
2026-04-30 21:43 55.62864 12.63927 24 ft 4 kts 11°
2026-04-30 21:43 55.62840 12.63914 24 ft 4 kts 53°
2026-04-30 21:43 55.62839 12.63885 28 ft 3 kts 104°
2026-04-30 21:44 55.62839 12.63880 28 ft 0 kts 104°
2026-04-30 21:49 55.62835 12.63910 24 ft 8 kts 105°
2026-04-30 21:49 55.62761 12.63935 24 ft 16 kts 208°
2026-04-30 21:50 55.62676 12.63853 24 ft 9 kts 192°
2026-04-30 21:50 55.62627 12.63928 24 ft 11 kts 122°
2026-04-30 21:50 55.62582 12.64053 25 ft 13 kts 123°
2026-04-30 21:50 55.62527 12.64201 24 ft 16 kts 123°
2026-04-30 21:51 55.62458 12.64370 24 ft 18 kts 128°
2026-04-30 21:51 55.62379 12.64564 24 ft 21 kts 123°
2026-04-30 21:51 55.62302 12.64778 24 ft 22 kts 123°
2026-04-30 21:51 55.62216 12.65011 25 ft 20 kts 122°
2026-04-30 21:52 55.62140 12.65100 24 ft 13 kts 202°
2026-04-30 21:52 55.62057 12.65002 25 ft 16 kts 214°
2026-04-30 21:52 55.61957 12.64888 23 ft 19 kts 212°
2026-04-30 21:52 55.61843 12.64760 25 ft 20 kts 213°
2026-04-30 21:53 55.61720 12.64614 24 ft 23 kts 213°
2026-04-30 21:53 55.61582 12.64452 24 ft 25 kts 213°
2026-04-30 21:53 55.61431 12.64283 24 ft 23 kts 213°
2026-04-30 21:53 55.61287 12.64118 25 ft 26 kts 213°
2026-04-30 21:54 55.61137 12.63946 24 ft 26 kts 213°
2026-04-30 21:54 55.60992 12.63778 24 ft 23 kts 213°
2026-04-30 21:54 55.60858 12.63623 24 ft 20 kts 213°
2026-04-30 21:54 55.60826 12.63589 25 ft 4 kts 210°
2026-04-30 21:55 55.60783 12.63616 24 ft 10 kts 147°
2026-04-30 21:55 55.60747 12.63676 24 ft 0 kts 132°
2026-04-30 21:56 55.60742 12.63685 24 ft 5 kts 131°
2026-04-30 21:56 55.60680 12.63821 27 ft 18 kts 120°
2026-04-30 21:56 55.60711 12.63916 25 ft 0 kts 40°
2026-04-30 21:57 55.60713 12.63919 25 ft 2 kts 40°
2026-04-30 21:57 55.60850 12.64130 28 ft 61 kts 40°
2026-04-30 21:57 55.61340 12.64880 26 ft 122 kts 41°
2026-04-30 21:57 55.62105 12.66041 62 ft 162 kts 38°
2026-04-30 21:58 55.62943 12.67303 723 ft 157 kts 38°
2026-04-30 21:58 55.63761 12.68580 1350 ft 157 kts 38°
2026-04-30 21:58 55.64578 12.69878 1888 ft 164 kts 38°
2026-04-30 21:58 55.65525 12.71184 2186 ft 180 kts 26°
2026-04-30 21:59 55.66769 12.71500 2447 ft 197 kts 343°
2026-04-30 21:59 55.68091 12.70447 2721 ft 221 kts 338°
2026-04-30 21:59 55.69675 12.69944 3092 ft 245 kts 357°
2026-04-30 22:00 55.73222 12.69608 4638 ft 261 kts 357°
2026-04-30 22:00 55.76887 12.69220 6448 ft 266 kts 358°
2026-04-30 22:00 55.78744 12.69023 7318 ft 268 kts 358°
2026-04-30 22:01 55.80539 12.68444 8119 ft 274 kts 341°
2026-04-30 22:01 55.82231 12.66720 8754 ft 284 kts 318°
2026-04-30 22:01 55.83481 12.63963 9519 ft 291 kts 300°
2026-04-30 22:01 55.84270 12.60632 10412 ft 293 kts 294°
2026-04-30 22:02 55.85038 12.57195 10846 ft 309 kts 294°
2026-04-30 22:02 55.85864 12.53509 11069 ft 331 kts 294°
2026-04-30 22:02 55.86722 12.49648 11602 ft 339 kts 294°
2026-04-30 22:02 55.87593 12.45710 12223 ft 345 kts 294°
2026-04-30 22:03 55.88482 12.41717 12870 ft 349 kts 296°
2026-04-30 22:03 55.89671 12.38015 13496 ft 349 kts 310°
2026-04-30 22:03 55.91335 12.34880 14153 ft 349 kts 324°
2026-04-30 22:03 55.93362 12.32533 14749 ft 348 kts 338°
2026-04-30 22:04 55.95632 12.31089 15379 ft 346 kts 348°
2026-04-30 22:04 55.97969 12.30028 16008 ft 348 kts 348°
2026-04-30 22:04 56.02683 12.27846 17255 ft 352 kts 347°
2026-04-30 22:05 56.05057 12.26739 17873 ft 354 kts 347°
2026-04-30 22:05 56.07420 12.25635 18492 ft 357 kts 347°
2026-04-30 22:05 56.09826 12.24509 19065 ft 359 kts 347°
2026-04-30 22:05 56.12289 12.23653 19624 ft 361 kts 353°
2026-04-30 22:06 56.14775 12.22969 20167 ft 363 kts 353°
2026-04-30 22:06 56.19765 12.21612 20426 ft 359 kts 353°
2026-04-30 22:06 56.22223 12.20939 20437 ft 357 kts 353°
2026-04-30 22:07 56.24675 12.20266 20434 ft 356 kts 353°
2026-04-30 22:07 56.27092 12.19604 20427 ft 356 kts 353°
2026-04-30 22:07 56.29537 12.18933 20436 ft 356 kts 353°
2026-04-30 22:07 56.31982 12.18258 20434 ft 356 kts 353°
2026-04-30 22:08 56.34427 12.17584 20432 ft 356 kts 353°
2026-04-30 22:08 56.36874 12.16907 20428 ft 356 kts 353°
2026-04-30 22:08 56.39323 12.16228 20437 ft 356 kts 353°
2026-04-30 22:08 56.41766 12.15549 20412 ft 356 kts 352°
2026-04-30 22:09 56.44215 12.14865 20415 ft 357 kts 352°
2026-04-30 22:09 56.46673 12.14177 20410 ft 357 kts 352°
2026-04-30 22:09 56.49129 12.13490 20422 ft 358 kts 352°
2026-04-30 22:09 56.51559 12.12813 20424 ft 358 kts 352°
2026-04-30 22:10 56.54019 12.12128 20422 ft 358 kts 352°
2026-04-30 22:10 56.56485 12.11441 20435 ft 358 kts 352°
2026-04-30 22:10 56.58952 12.10752 20432 ft 359 kts 352°
2026-04-30 22:10 56.61420 12.10060 20434 ft 359 kts 352°
2026-04-30 22:11 56.66353 12.08673 20439 ft 359 kts 352°
2026-04-30 22:11 56.68821 12.07980 20441 ft 359 kts 352°
2026-04-30 22:11 56.71288 12.07283 20442 ft 359 kts 352°
2026-04-30 22:12 56.73723 12.06593 20443 ft 359 kts 352°
2026-04-30 22:12 56.76194 12.05893 20444 ft 359 kts 352°
2026-04-30 22:12 56.78660 12.05196 20444 ft 359 kts 352°
2026-04-30 22:12 56.81129 12.04500 20445 ft 359 kts 352°
2026-04-30 22:13 56.83598 12.03800 20448 ft 359 kts 352°
2026-04-30 22:13 56.86063 12.03101 20447 ft 359 kts 352°
2026-04-30 22:13 56.88529 12.02401 20447 ft 359 kts 352°
2026-04-30 22:13 56.90997 12.01699 20447 ft 359 kts 352°
2026-04-30 22:14 56.93433 12.01006 20440 ft 359 kts 352°
2026-04-30 22:14 56.95896 12.00301 20441 ft 359 kts 352°
2026-04-30 22:14 56.98365 11.99593 20441 ft 359 kts 352°
2026-04-30 22:14 57.00833 11.98887 20439 ft 359 kts 352°
2026-04-30 22:15 57.03293 11.98184 20440 ft 359 kts 353°
2026-04-30 22:15 57.05779 11.97906 20440 ft 358 kts
2026-04-30 22:15 57.08270 11.97901 20441 ft 358 kts 360°
2026-04-30 22:15 57.10737 11.97889 20431 ft 362 kts
2026-04-30 22:16 57.13265 11.97881 20413 ft 364 kts
2026-04-30 22:16 57.15761 11.97876 20131 ft 353 kts
2026-04-30 22:17 57.22976 11.97841 17945 ft 332 kts
2026-04-30 22:17 57.25228 11.97830 17553 ft 317 kts
2026-04-30 22:17 57.29438 11.97808 16806 ft 293 kts
2026-04-30 22:18 57.31460 11.97799 16453 ft 292 kts
2026-04-30 22:18 57.35542 11.97782 15731 ft 293 kts
2026-04-30 22:19 57.39629 11.97763 15010 ft 294 kts 359°
2026-04-30 22:19 57.41670 11.97755 14645 ft 294 kts 360°
2026-04-30 22:19 57.45760 11.97734 13899 ft 295 kts 360°
2026-04-30 22:20 57.47783 11.97723 13536 ft 294 kts 359°
2026-04-30 22:20 57.51858 11.97701 12817 ft 292 kts 359°
2026-04-30 22:20 57.53886 11.97720 12450 ft 292 kts
2026-04-30 22:21 57.55884 11.98369 12082 ft 293 kts 15°
2026-04-30 22:21 57.57757 11.99861 11705 ft 294 kts 27°
2026-04-30 22:21 57.59565 12.01640 11337 ft 294 kts 26°
2026-04-30 22:21 57.61376 12.03415 10953 ft 294 kts 25°
2026-04-30 22:22 57.63166 12.05165 10606 ft 295 kts 25°
2026-04-30 22:22 57.64984 12.06940 10235 ft 295 kts 26°
2026-04-30 22:22 57.66800 12.08714 9844 ft 295 kts 26°
2026-04-30 22:22 57.68615 12.10490 9478 ft 294 kts 26°
2026-04-30 22:23 57.70423 12.12264 9108 ft 293 kts 26°
2026-04-30 22:23 57.72215 12.14028 8784 ft 291 kts 26°
2026-04-30 22:23 57.74002 12.15786 8453 ft 289 kts 26°
2026-04-30 22:23 57.75781 12.17538 8127 ft 287 kts 26°
2026-04-30 22:24 57.77548 12.19278 7768 ft 286 kts 26°
2026-04-30 22:24 57.79291 12.21001 7453 ft 279 kts 26°
2026-04-30 22:24 57.80975 12.22666 6986 ft 273 kts 26°
2026-04-30 22:24 57.82623 12.24298 6662 ft 261 kts 26°
2026-04-30 22:25 57.84193 12.25851 6316 ft 251 kts 26°
2026-04-30 22:25 57.85569 12.27779 6136 ft 249 kts 45°
2026-04-30 22:25 57.86523 12.30506 6017 ft 253 kts 65°
2026-04-30 22:25 57.86934 12.33788 5517 ft 266 kts 86°
2026-04-30 22:26 57.85767 12.39937 4725 ft 254 kts 142°
2026-04-30 22:26 57.84280 12.41314 4525 ft 235 kts 172°
2026-04-30 22:26 57.82696 12.41579 4119 ft 229 kts 179°
2026-04-30 22:27 57.81119 12.41391 3645 ft 225 kts 199°
2026-04-30 22:27 57.79693 12.40293 3218 ft 219 kts 210°
2026-04-30 22:27 57.77066 12.37841 2614 ft 202 kts 211°
2026-04-30 22:28 57.74678 12.35653 2105 ft 178 kts 212°
2026-04-30 22:28 57.73641 12.34708 1890 ft 156 kts 212°
2026-04-30 22:29 57.71000 12.32289 1298 ft 135 kts 210°
2026-04-30 22:29 57.70154 12.31515 1116 ft 135 kts 209°
2026-04-30 22:30 57.66890 12.28530 514 ft 91 kts 207°
2026-04-30 22:31 57.66122 12.28025 508 ft 10 kts 116°
2026-04-30 22:32 57.66117 12.28043 509 ft 0 kts 115°
2026-04-30 22:32 57.66115 12.28050 509 ft 4 kts 115°
2026-04-30 22:33 57.66217 12.28265 510 ft 0 kts 25°
2026-04-30 22:33 57.66285 12.28327 511 ft 10 kts 27°
2026-04-30 22:34 57.66434 12.28464 511 ft 10 kts 25°
2026-04-30 22:35 57.66592 12.28609 512 ft 15 kts 26°
2026-04-30 22:36 57.67036 12.29041 514 ft 16 kts 72°
2026-04-30 22:36 57.67002 12.29229 516 ft 12 kts 116°
2026-04-30 22:37 57.66933 12.29461 516 ft 0 kts 116°